Location: Tauranga
(37.6860°S, 176.1670°E)
Time: 19:15:46
(UTC+13:00)

Cosmos 2322 Rocket - Pass Details

Date: 24 January 2019
Orbit: 834 x 849 km, 71.0° (Epoch: 15 February)

Event Time Altitude Azimuth Distance (km) Brightness Sun altitude
Rises 21:12:16 0° 360° (N) 3,379 5.0 -7.4°
Reaches altitude 10° 21:14:49 10° 7° (N) 2,455 4.3 -7.8°
Maximum altitude 21:20:03 41° 75° (ENE) 1,222 2.6 -8.7°
Drops below altitude 10° 21:25:21 10° 143° (SE) 2,494 4.6 -9.6°
Sets 21:27:57 0° 150° (SSE) 3,438 5.4 -10.0°
